Regional Weather Roundup
Issued by NWS

Home | Current Version | Previous Version | Graphics & Text | Print | Product List | Glossary Off
Versions: 1 2 3 4 5 6 7 8 9 10 11 12 13 14 15 16 17 18 19 20 21 22 23 24 25 26 27 28 29 30 31 32 33 34 35 36 37 38 39 40 41 42 43 44 45 46 47 48 49 50

000
ASUS43 KLSX 311259
RWRMO

WEATHER SUMMARY FOR MISSOURI
NATIONAL WEATHER SERVICE SPRINGFIELD MO
800 AM CDT FRI OCT 31 2014

NOTE: "FAIR" INDICATES FEW OR NO CLOUDS BELOW 12,000 FEET WITH NO
       SIGNIFICANT WEATHER AND/OR OBSTRUCTIONS TO VISIBILITY.
       CURRENT SKY AND/OR WEATHER CONDITIONS ARE NOT AVAILABLE FOR
       CHILLICOTHE AND FARMINGTON.

MOZ001>031-035>038-043-044-053-054-311400-
...NORTHERN AND WESTERN MISSOURI...

CITY           SKY/WX    TMP DP  RH WIND       PRES   REMARKS
KANSAS CTY INT PTCLDY    33  22  63 N18G26    30.44R WCI  22
KANSAS C DTWN  MOCLDY    37  23  56 N14G22    30.44R WCI  28
LEE`S SUMMIT   CLEAR     36  25  64 N15G24    30.41R WCI  27
ST JOSEPH      CLEAR     32  21  64 N13       30.49R WCI  22
CHILLICOTHE      N/A     34  19  54 N14       30.43R WCI  25
KIRKSVILLE     CLEAR     31  16  54 N14G24    30.37R WCI  21

$$
MOZ066>068-077>081-088>096-101>105-311400-
...SOUTHWEST MISSOURI...

CITY           SKY/WX    TMP DP  RH WIND       PRES   REMARKS
SPRINGFIELD    CLOUDY    48  39  71 N16       30.25R
JOPLIN         CLOUDY    47  39  74 N18G33    30.31R

$$
MOZ032>034-039>042-045>050-055>058-069>072-311400-
...CENTRAL MISSOURI...

CITY           SKY/WX    TMP DP  RH WIND       PRES   REMARKS
COLUMBIA       MOCLDY    39  28  64 N22G31    30.30R WCI  29
JEFFERSON CITY CLOUDY    45  33  63 N15G31    30.29R
ROLLA          CLOUDY    45  38  76 N15G24    30.21R
SEDALIA        LGT RAIN  39  28  64 N26G33    30.36R WCI  28
OSAGE BEACH    CLOUDY    45  34  65 N7G21     30.28R

$$
MOZ051-052-059>065-311400-
...EAST CENTRAL MISSOURI...

CITY           SKY/WX    TMP DP  RH WIND       PRES   REMARKS
ST LOUIS INTL  MOCLDY    46  32  58 N20G30    30.20R
SPIRIT OF STL  CLOUDY    47  35  63 N18G28    30.21R
ST CHARLES     CLOUDY    45  31  58 N17G33    30.21R

$$
MOZ072>076-082>087-097>100-106>115-311400-
...SOUTH CENTRAL AND SOUTHEAST MISSOURI...

CITY           SKY/WX    TMP DP  RH WIND       PRES   REMARKS
CAPE GIRARDEAU CLOUDY    50  45  83 N15       30.12R
FARMINGTON     CLOUDY    45  41  87 NW10G16   30.18R
POPLAR BLUFF   PTCLDY    48  42  80 N14       30.12R
WEST PLAINS    MOCLDY    47  40  76 N14G26    30.20R

$$



USA.gov is the U.S. government's official web portal to all federal, state and local government web resources and services.